TimeCST,TemperatureF,Dew PointF,Humidity,Sea Level PressureIn,VisibilityMPH,Wind Direction,Wind SpeedMPH,Gust SpeedMPH,PrecipitationIn,Events,Conditions,WindDirDegrees,DateUTC
12:53 AM,28.0,21.0,75,30.18,10.0,Calm,Calm,-,N/A,,Clear,0,2012-11-29 06:53:00
1:53 AM,27.0,21.9,81,30.16,10.0,SSE,4.6,-,N/A,,Clear,150,2012-11-29 07:53:00
2:53 AM,30.0,25.0,82,30.15,10.0,Calm,Calm,-,N/A,,Clear,0,2012-11-29 08:53:00
3:53 AM,28.0,23.0,81,30.14,10.0,Calm,Calm,-,N/A,,Clear,0,2012-11-29 09:53:00
4:53 AM,28.0,25.0,88,30.12,10.0,Calm,Calm,-,N/A,,Clear,0,2012-11-29 10:53:00
5:53 AM,33.1,27.0,78,30.10,10.0,South,6.9,-,N/A,,Clear,170,2012-11-29 11:53:00
6:53 AM,34.0,28.0,79,30.08,10.0,South,5.8,-,N/A,,Clear,170,2012-11-29 12:53:00
7:53 AM,30.9,26.1,82,30.09,10.0,SSW,3.5,-,N/A,,Clear,200,2012-11-29 13:53:00
8:53 AM,41.0,33.1,73,30.08,10.0,South,3.5,-,N/A,,Clear,190,2012-11-29 14:53:00
9:53 AM,45.0,35.1,68,30.08,10.0,Calm,Calm,-,N/A,,Clear,0,2012-11-29 15:53:00
10:53 AM,48.9,35.1,59,30.07,10.0,SSW,9.2,-,N/A,,Clear,210,2012-11-29 16:53:00
11:53 AM,52.0,36.0,54,30.06,10.0,SW,8.1,-,N/A,,Clear,220,2012-11-29 17:53:00
12:53 PM,55.9,37.0,49,30.02,10.0,SSW,11.5,-,N/A,,Clear,210,2012-11-29 18:53:00
1:53 PM,55.9,37.0,49,30.00,10.0,SSW,11.5,-,N/A,,Clear,210,2012-11-29 19:53:00
2:53 PM,57.9,37.0,46,29.98,10.0,South,9.2,-,N/A,,Clear,180,2012-11-29 20:53:00
3:53 PM,57.0,37.9,49,29.97,10.0,SSW,11.5,-,N/A,,Clear,200,2012-11-29 21:53:00
4:53 PM,51.1,37.0,59,29.98,10.0,South,5.8,-,N/A,,Clear,180,2012-11-29 22:53:00
5:53 PM,46.9,36.0,66,29.99,10.0,Calm,Calm,-,N/A,,Clear,0,2012-11-29 23:53:00
6:53 PM,37.0,28.9,73,29.99,10.0,Calm,Calm,-,N/A,,Clear,0,2012-11-30 00:53:00
7:53 PM,37.0,28.9,73,29.99,10.0,Calm,Calm,-,N/A,,Clear,0,2012-11-30 01:53:00
8:53 PM,35.1,30.0,82,30.01,9.0,Calm,Calm,-,N/A,,Clear,0,2012-11-30 02:53:00
9:53 PM,33.1,27.0,78,30.01,10.0,NNW,3.5,-,N/A,,Clear,340,2012-11-30 03:53:00
10:53 PM,33.1,30.0,89,30.00,9.0,SSE,5.8,-,N/A,,Clear,160,2012-11-30 04:53:00
11:53 PM,35.1,32.0,89,29.99,9.0,SSW,4.6,-,N/A,,Clear,200,2012-11-30 05:53:00